Date String (YYYY-MM-DD hh:mm:ss) UTC,Instrument flags,absolute air pressure of the measurement (hPa),sample flow rate (lpm),inlet stack bypass flow (lpm),air temperature of the measurement (°C),ambient temperature measured by the external sensor (°C),aerosol sample conditioner tube jacket temperature (°C),OPC LED temperature (°C),internal box temperature (°C),relative humidity of the measurement (%),span deviation,mass concentration of particles derived from Lorenz-Mie calculation of OPC scattering (μg/m³),mass concentration of particles derived from Lorenz-Mie calculation of OPC scattering (μg/m³),mass concentration of particles derived from Lorenz-Mie calculation of OPC scattering (μg/m³)
DateTimeUTC,F1_M11,P_M11,Q1_M11,Q2_M11,T1_M11,T2_M11,T3_M11,T4_M11,T5_M11,U1_M11,ZSPAN_M11,X0_M11,X2_M11,X1_M11
2024-05-21 13:00:00,SystemResetWarning,0823.5,5.01,000.00,026.3,025.5,000.0,034.7,028.1,022.5,0000.0,0002.74,0000.91,0000.71
2024-05-21 13:01:00,SystemResetWarning,0823.6,5.01,000.00,026.3,025.5,000.0,034.7,028.1,022.5,0000.0,0002.42,0000.87,0000.67
2024-05-21 13:02:00,SystemResetWarning,0823.6,4.99,000.00,026.3,025.5,000.0,034.7,028.1,022.6,0000.0,0002.31,0000.84,0000.65
2024-05-21 13:03:00,SystemResetWarning,0823.6,4.99,000.00,026.3,025.5,000.0,034.7,028.1,022.8,0000.0,0001.96,0000.81,0000.62
2024-05-21 13:04:00,SystemResetWarning,0823.6,5.00,000.00,026.3,025.5,000.0,034.7,028.0,022.6,0000.0,0001.79,0000.78,0000.60
2024-05-21 13:05:00,SystemResetWarning,0823.6,5.01,000.00,026.3,025.5,000.0,034.7,028.0,022.4,0000.0,0001.70,0000.75,0000.58
2024-05-21 13:06:00,SystemResetWarning,0823.6,5.01,000.00,026.3,025.5,000.0,034.6,028.0,022.7,0000.0,0001.67,0000.73,0000.57
2024-05-21 13:07:00,SystemResetWarning,0823.6,4.99,000.00,026.3,025.5,000.0,034.6,028.0,022.8,0000.0,0001.65,0000.72,0000.57
2024-05-21 13:08:00,SystemResetWarning,0823.5,4.99,000.00,026.3,025.5,000.0,034.6,028.1,021.8,0000.0,0001.59,0000.69,0000.56
2024-05-21 13:09:00,SystemResetWarning,0823.5,5.00,000.00,026.3,025.5,000.0,034.6,028.1,021.4,0000.0,0001.56,0000.68,0000.54
2024-05-21 13:10:00,SystemResetWarning,0823.5,5.00,000.00,026.3,025.5,000.0,034.6,028.1,021.5,0000.0,0001.53,0000.65,0000.53
2024-05-21 13:11:00,SystemResetWarning,0823.5,5.01,000.00,026.3,025.5,000.0,034.6,028.1,021.9,0000.0,0001.55,0000.66,0000.53
2024-05-21 13:12:00,SystemResetWarning,0823.6,5.00,000.00,026.3,025.5,000.0,034.6,028.1,022.1,0000.0,0000.95,0000.66,0000.53
2024-05-21 13:13:00,SystemResetWarning,0823.6,4.99,000.00,026.3,025.5,000.0,034.6,028.1,022.2,0000.0,0000.97,0000.67,0000.53
2024-05-21 13:14:00,SystemResetWarning,0823.6,4.99,000.00,026.3,025.5,000.0,034.6,028.1,022.6,0000.0,0000.92,0000.65,0000.53
2024-05-21 13:15:00,SystemResetWarning,0823.6,5.00,000.00,026.3,025.5,000.0,034.6,028.1,022.7,0000.0,0000.98,0000.67,0000.53
2024-05-21 13:16:00,SystemResetWarning,0823.6,5.01,000.00,026.3,025.6,000.0,034.6,028.1,023.1,0000.0,0001.00,0000.68,0000.53
2024-05-21 13:17:00,SystemResetWarning,0823.6,5.00,000.00,026.3,025.6,000.0,034.6,028.1,023.4,0000.0,0001.02,0000.69,0000.53
2024-05-21 13:18:00,SystemResetWarning,0823.6,4.99,000.00,026.3,025.6,000.0,034.6,028.1,023.5,0000.0,0001.11,0000.70,0000.53
2024-05-21 13:19:00,SystemResetWarning,0823.6,5.00,000.00,026.3,025.6,000.0,034.6,028.1,023.8,0000.0,0001.23,0000.74,0000.53
2024-05-21 13:20:00,SystemResetWarning,0823.6,5.01,000.00,026.3,025.6,000.0,034.6,028.1,024.0,0000.0,0001.28,0000.77,0000.55
2024-05-21 13:21:00,SystemResetWarning,0823.6,5.00,000.00,026.3,025.6,000.0,034.6,028.1,023.5,0000.0,0001.32,0000.80,0000.56
2024-05-21 13:22:00,SystemResetWarning,0823.6,4.99,000.00,026.3,025.6,000.0,034.6,028.2,023.7,0000.0,0001.57,0000.78,0000.57
2024-05-21 13:23:00,SystemResetWarning,0823.6,5.00,000.00,026.3,025.6,000.0,034.6,028.1,024.0,0000.0,0002.38,0000.81,0000.58
2024-05-21 13:24:00,SystemResetWarning,0823.6,5.01,000.00,026.3,025.6,000.0,034.6,028.2,023.5,0000.0,0002.36,0000.80,0000.58
2024-05-21 13:25:00,SystemResetWarning,0823.6,4.99,000.00,026.4,025.6,000.0,034.6,028.2,023.0,0000.0,0002.44,0000.83,0000.58
2024-05-21 13:26:00,SystemResetWarning,0823.6,4.99,000.00,026.4,025.6,000.0,034.6,028.2,022.1,0000.0,0002.41,0000.81,0000.58
2024-05-21 13:27:00,SystemResetWarning,0823.7,5.01,000.00,026.4,025.7,000.0,034.6,028.2,022.9,0000.0,0002.37,0000.80,0000.57
2024-05-21 13:28:00,SystemResetWarning,0823.7,5.00,000.00,026.4,025.7,000.0,034.7,028.2,023.5,0000.0,0002.45,0000.83,0000.57
2024-05-21 13:29:00,SystemResetWarning,0823.8,4.99,000.00,026.4,025.7,000.0,034.7,028.2,022.9,0000.0,0002.39,0000.80,0000.56
2024-05-21 13:30:00,SystemResetWarning,0823.8,5.01,000.00,026.4,025.7,000.0,034.7,028.2,023.0,0000.0,0002.23,0000.76,0000.55
2024-05-21 13:31:00,SystemResetWarning,0823.8,4.99,000.00,026.4,025.6,000.0,034.7,028.2,023.8,0000.0,0002.19,0000.74,0000.54
2024-05-21 13:32:00,SystemResetWarning,0823.8,5.00,000.00,026.4,025.6,000.0,034.7,028.2,024.2,0000.0,0002.15,0000.72,0000.53
2024-05-21 13:33:00,SystemResetWarning,0823.7,5.01,000.00,026.4,025.6,000.0,034.7,028.2,024.5,0000.0,0002.23,0000.76,0000.53
2024-05-21 13:34:00,SystemResetWarning,0823.7,5.01,000.00,026.3,025.6,000.0,034.7,028.2,025.4,0000.0,0001.57,0000.79,0000.53
2024-05-21 13:35:00,SystemResetWarning,0823.7,5.00,000.00,026.3,025.6,000.0,034.7,028.2,024.8,0000.0,0001.26,0000.80,0000.55
2024-05-21 13:36:00,SystemResetWarning,0823.7,4.99,000.00,026.3,025.5,000.0,034.7,028.1,025.0,0000.0,0001.33,0000.84,0000.56
2024-05-21 13:37:00,SystemResetWarning,0823.8,4.99,000.00,026.3,025.5,000.0,034.7,028.1,025.8,0000.0,0001.37,0000.86,0000.58
2024-05-21 13:38:00,SystemResetWarning,0823.7,5.01,000.00,026.3,025.5,000.0,034.7,028.1,025.5,0000.0,0001.42,0000.90,0000.61
2024-05-21 13:39:00,SystemResetWarning,0823.6,5.01,000.00,026.3,025.5,000.0,034.7,028.1,025.7,0000.0,0001.47,0000.94,0000.64
2024-05-21 13:40:00,SystemResetWarning,0823.5,5.00,000.00,026.3,025.5,000.0,034.7,028.1,025.6,0000.0,0001.46,0000.95,0000.67
2024-05-21 13:41:00,SystemResetWarning,0823.5,4.99,000.00,026.3,025.5,000.0,034.7,028.1,025.5,0000.0,0001.68,0001.01,0000.69
2024-05-21 13:42:00,SystemResetWarning,0823.5,4.99,000.00,026.3,025.6,000.0,034.7,028.2,025.2,0000.0,0001.78,0001.04,0000.72
2024-05-21 13:43:00,SystemResetWarning,0823.6,5.01,000.00,026.3,025.6,000.0,034.7,028.1,025.5,0000.0,0001.79,0001.06,0000.75
2024-05-21 13:44:00,SystemResetWarning,0823.8,5.01,000.00,026.3,025.6,000.0,034.7,028.1,024.5,0000.0,0001.84,0001.09,0000.77
2024-05-21 13:45:00,SystemResetWarning,0823.8,4.99,000.00,026.3,025.5,000.0,034.7,028.1,024.8,0000.0,0001.72,0001.06,0000.78
2024-05-21 13:46:00,SystemResetWarning,0823.7,5.00,000.00,026.3,025.5,000.0,034.7,028.1,024.7,0000.0,0001.81,0001.11,0000.79
2024-05-21 13:47:00,SystemResetWarning,0823.6,5.02,000.00,026.3,025.5,000.0,034.7,028.1,025.0,0000.0,0001.78,0001.10,0000.80
2024-05-21 13:48:00,SystemResetWarning,0823.4,5.01,000.00,026.3,025.5,000.0,034.7,028.1,025.0,0000.0,0001.75,0001.11,0000.82
2024-05-21 13:49:00,SystemResetWarning,0823.4,4.99,000.00,026.3,025.5,000.0,034.7,028.1,025.3,0000.0,0001.74,0001.11,0000.83
2024-05-21 13:50:00,SystemResetWarning,0823.3,4.99,000.00,026.3,025.5,000.0,034.7,028.1,025.1,0000.0,0001.69,0001.10,0000.85
2024-05-21 13:51:00,SystemResetWarning,0823.4,5.01,000.00,026.3,025.5,000.0,034.7,028.1,024.9,0000.0,0001.71,0001.13,0000.87
2024-05-21 13:52:00,SystemResetWarning,0823.5,5.02,000.00,026.3,025.5,000.0,034.7,028.1,024.6,0000.0,0001.56,0001.12,0000.89
2024-05-21 13:53:00,SystemResetWarning,0823.5,4.99,000.00,026.3,025.5,000.0,034.7,028.1,025.2,0000.0,0001.51,0001.13,0000.91
2024-05-21 13:54:00,SystemResetWarning,0823.7,4.99,000.00,026.3,025.5,000.0,034.7,028.1,025.1,0000.0,0001.67,0001.20,0000.92
2024-05-21 13:55:00,SystemResetWarning,0823.8,5.01,000.00,026.3,025.5,000.0,034.7,028.1,023.9,0000.0,0001.63,0001.19,0000.93
2024-05-21 13:56:00,SystemResetWarning,0823.8,5.01,000.00,026.3,025.5,000.0,034.6,028.1,023.4,0000.0,0001.55,0001.14,0000.91
2024-05-21 13:57:00,SystemResetWarning,0823.8,4.99,000.00,026.3,025.5,000.0,034.7,028.1,023.3,0000.0,0001.40,0001.07,0000.89
2024-05-21 13:58:00,SystemResetWarning,0823.8,4.99,000.00,026.3,025.5,000.0,034.6,028.1,023.8,0000.0,0001.33,0001.04,0000.86
2024-05-21 13:59:00,SystemResetWarning,0823.7,5.01,000.00,026.3,025.5,000.0,034.6,028.1,023.8,0000.0,0001.38,0001.05,0000.86
